Regional Weather Roundup
Issued by NWS Upton, NY

Current Version | Previous Version | Graphics & Text | Print | Product List | Glossary Off
Versions: 1 2 3 4 5 6 7 8 9 10 11 12 13 14 15 16 17 18 19 20 21 22 23 24 25 26 27 28 29 30 31 32 33 34 35 36 37 38 39 40 41 42 43 44 45 46 47 48 49 50

730
ASUS41 KOKX 220309
RWROKX

REGIONAL WEATHER ROUNDUP
NATIONAL WEATHER SERVICE NEW YORK NY
1100 PM EDT WED JUN 21 2017

NOTE: "FAIR" INDICATES FEW OR NO CLOUDS BELOW 12,000 FEET WITH NO
SIGNIFICANT WEATHER AND/OR OBSTRUCTIONS TO VISIBILITY.

NYZ071-072-176-178-NJZ106-104-220400-
NEW YORK CITY METRO AREA

CITY           SKY/WX    TMP DP  RH WIND       PRES   REMARKS
Central Park   CLEAR     75  59  57 CALM      29.96R
Bronx Bot Gard   N/A     75  57  53 CALM      29.93S
LaGuardia APRT PTCLDY    77  59  53 NW6       29.92R
Kennedy INTL   PTCLDY    70  65  84 S10       29.94R
Breezy Point     N/A     68 N/A N/A W2          N/A
Newark/Liberty PTCLDY    73  61  65 SW10      29.93R
Teterboro      CLEAR     73  60  63 W7        29.92R
$$

NYZ177-179-078>081-220400-
LONG ISLAND NEW YORK

CITY           SKY/WX    TMP DP  RH WIND       PRES   REMARKS
Jones Beach      N/A     66 N/A N/A SW8G15      N/A
Matinecock PT    N/A    N/A N/A N/A S5          N/A
Farmingdale    NOT AVBL
MacArthur/ISP  PTCLDY    68  63  84 SW6       29.93R
Shirley        CLEAR     69  63  81 SW3       29.94R
Mt Sinai Harb    N/A     70 N/A N/A SW6         N/A
Westhampton    CLEAR     68  60  75 SW6       29.95R
East Hampton   FAIR      68  59  74 W6        29.92S
Montauk          N/A     70  63  78 VRB3      29.93S
$$

NYZ052-065-067-220400-
HUDSON VALLEY

CITY           SKY/WX    TMP DP  RH WIND       PRES   REMARKS
White Plains   PTCLDY    68  63  83 W3        29.94R
Larchmont Harb   N/A     72 N/A N/A SW1         N/A
Croton O-T Hud   N/A     70 N/A N/A MISG        N/A
Newburgh       CLEAR     64  57  77 CALM      29.96R
Montgomery     CLEAR     64  57  78 CALM      29.95R
Poughkeepsie   CLEAR     62  58  86 VRB3      29.94R
Albany         PTCLDY    67  50  54 NW13      29.96R
$$

NJZ001-105-106-008-010-013-015-019>022-104-220400-
NEW JERSEY

CITY           SKY/WX    TMP DP  RH WIND       PRES   REMARKS
Newark/Liberty PTCLDY    73  61  65 SW10      29.93R
Teterboro      CLEAR     73  60  63 W7        29.92R
Caldwell       CLEAR     73  60  63 S3        29.95R
Somerville     CLEAR     63  62  97 CALM      29.94R
Linden         FAIR      73  60  63 W3        29.95R
Perth Amboy      N/A     72 N/A N/A SW10        N/A
Sussex         CLEAR     63  60  90 CALM      29.97R
Andover          N/A     63  61  93 CALM      29.97R
Trenton        CLEAR     68  65  90 SW6       29.96R
Millville      PTCLDY    67  67 100 CALM      29.98R FOG
Atlantic City  PTCLDY    69  67  93 SW5       29.97S
Wrightstown    CLEAR     66  64  95 SW7       29.94F
Toms River     CLEAR     66  64  93 SW7       29.98R
Belmar         CLEAR     67  65  93 SW7       29.97R
$$

PAZ047>061-062-071-220400-
EASTERN PENNSYLVANIA

CITY           SKY/WX    TMP DP  RH WIND       PRES   REMARKS
Philadelphia   PTCLDY    71  65  81 S5        29.97S
Allentown      CLEAR     70  62  76 CALM      29.96R
Scranton       CLEAR     65  56  72 E7        29.99R
$$

CTZ002-004>006-009-010-012-RIZ004-006-007-MAZ004-011-015-220400-
SOUTHERN NEW ENGLAND
 IN CT

CITY           SKY/WX    TMP DP  RH WIND       PRES   REMARKS
Bradley INTL   PTCLDY    65  56  72 W5        29.93R
Hartford       PTCLDY    71  57  61 VRB3      29.92R
Danbury        CLEAR     62  59  90 SW5       29.96R
Wtrbury/Oxford CLEAR     63  55  77 CALM      29.96R
Bridgeport     CLEAR     72  62  71 CALM      29.93R
Meriden        CLEAR     63  60  90 S3        29.93R
New Haven      NOT AVBL
Chester        FAIR      68  61  77 CALM      29.94R
Groton         CLEAR     68  62  81 CALM      29.91S
Wilimantic     CLEAR     67  64  90 CALM      29.93R

 IN RI

CITY           SKY/WX    TMP DP  RH WIND       PRES   REMARKS
Providence     PTCLDY    69  60  73 W6        29.92R
Block Island   PTCLDY    65  62  90 SW10      29.93
Westerly       PTCLDY    70  64  81 CALM      29.92S
 IN MA

CITY           SKY/WX    TMP DP  RH WIND       PRES   REMARKS
Boston         PTCLDY    73  49  42 W10       29.89R
Worcester      CLEAR     65  47  52 W10       29.95R
Westfield      CLEAR     60  57  89 CALM      29.93R
Provincetown   CLEAR     61  60  97 SW3       29.90S
Nantucket      CLOUDY    63  63 100 W16       29.91S FOG
$$

ANZ330-335-338-340-345-350-353-355-220400-
COASTAL MARINE OBSERVATIONS


STATION/POSITION TIME  SKY/WX   TEMP    WIND        PRES    VSBY  WAVE
                                AIR SEA DIR/SP/G                  HT/PER
                 (UTC)          (F)     (DEG/KT/KT) (MB)    (MI)  (FT/S)
NY HARB ENTRANCE 0150            66 64  210/ 16/ 17 1013.4          3/ 6
20 S FIRE ISLAND 0250            69 67  230/ 16/ 17 1012.9          4/ 6
GREAT SOUTH BAY  0230            71 75  230/ 14/ 17   N/A
23 SSW MONTAUK P 0150            65 63              1013.5          4/ 5
15 E BARNEGAT LI 0230               64                N/A           3/ 6
HUDSON CANYON    0150            67 65  220/ 12/ 14 1014.3          5/ 6
KINGS POINT      0224            73 64  290/  5/  6 1013.3
EXECUTION ROCKS  0245            70     220/  4/  4   N/A
CENTRAL LI SOUND 0215            70     230/  6/  8   N/A           1
EASTERN LI SOUND NOT AVBL
ROBBINS REEF     0230                   240/  6/  6 1014.2
$$


>>>>>>>>>>>>>>>>>>>>>>>>>>>> KEY <<<<<<<<<<<<<<<<<<<<<<<<<<<
>                                                          <
>     SKY/WX - Sky Condition/Present Weather               <
>     TMP    - Temperature in Fahrenheit                   <
>     DP     - Dew Point in Fahrenheit                     <
>     RH     - Relative Humidity in Percent                <
>     WIND   - Direction (from) and Speed in MPH           <
>     PRES   - Mean Sea Level Pressure (inches of Hg)      <
>     WCI    - Wind Chill Index                            <
>     VSB    - VISIBILITY IN MILES                         <
>     HX     - HEAT INDEX                                  <
>     TC     - TEMPERATURE IN CELSIUS                      <
>     VRB    - VARIABLE WIND DIRECTION                     <
>                                                          <
>>>>>>>>>>>>>>>>>>>>>>>>>>>> KEY <<<<<<<<<<<<<<<<<<<<<<<<<<<




USA.gov is the U.S. government's official web portal to all federal, state and local government web resources and services.